Weather History for Madison, WI

Change the Weather History Date:

Saturday, December 8, 2012

  Actual Average Record
Temperature  
Mean Temperature 33 °F 25 °F  
Max Temperature 39 °F 32 °F 60 °F (1946)
Min Temperature 27 °F 18 °F -16 °F (1876)
Degree Days  
Heating Degree Days 32 40  
Month to date heating degree days 196 306  
Since 1 July heating degree days 1711 1885  
Cooling Degree Days 0 0  
Month to date cooling degree days 0 0  
Year to date cooling degree days 1068 568  
Moisture  
Dew Point 26 °F    
Average Humidity 78    
Maximum Humidity 92    
Minimum Humidity 64    
Precipitation  
Precipitation T in 0.07 in 0.82 in (1966)
Month to date precipitation 0.16 0.57  
Year to date precipitation 23.92 33.31  
Snow  
Snow 0.20 in 0.50 in 7.10 in (2009)
Month to date snowfall 0.2 3.3  
Since 1 July snowfall 0.3 7.4  
Snow Depth T in    
Sea Level Pressure  
Sea Level Pressure 30.06 in    
Wind  
Wind Speed 7 mph (NE)    
Max Wind Speed 13 mph    
Max Gust Speed 15 mph    
Visibility 10 miles    
Events Snow    
T = Trace of Precipitation, MM = Missing Value Source: NWS Daily Summary

Daily Weather History Graph

Daily Weather History Graph

Search for Another Location

Airport:

Trip Planner

Search our weather history database for the weather conditions in past years. The results will help you decide how hot, cold, wet, or windy it might be!

Date:

Astronomy

Dec. 08, 2012 Rise Set
Actual Time 7:16 AM CST 4:22 PM CST
Civil Twilight 6:44 AM CST 4:54 PM CST
Nautical Twilight 6:08 AM CST 5:30 PM CST
Astronomical Twilight 5:34 AM CST 6:04 PM CST
Moon 1:34 AM CST (12/8) 12:58 PM CST (12/8)
Length of Visible Light 10h 09m
Length of Day
9h 05m
Waning Crescent, 28% of the Moon is Illuminated
Dec 8
Waning Crescent
Dec 13
New
Dec 19
First Quarter
Dec 28
Full
Jan 4
Last Quarter

Hourly Weather History & Observations

Time (CST) Temp. Windchill Dew Point Humidity Pressure Visibility Wind Dir Wind Speed Gust Speed Precip Events Conditions
12:53 AM 33.1 °F 27.7 °F 26.1 °F 75% 29.98 in 10.0 mi North 5.8 mph - 0.00 in   Overcast
1:53 AM 33.1 °F 26.1 °F 27.0 °F 78% 29.97 in 8.0 mi North 8.1 mph - 0.00 in Snow Light Snow
2:53 AM 32.0 °F 24.8 °F 27.0 °F 82% 29.97 in 9.0 mi NNE 8.1 mph - 0.00 in Snow Light Snow
3:53 AM 33.1 °F 26.9 °F 27.0 °F 78% 29.98 in 10.0 mi North 6.9 mph - 0.00 in   Overcast
4:53 AM 30.2 °F 24.3 °F 26.6 °F 86% 29.96 in 9.0 mi North 5.8 mph - N/A Snow Light Snow
5:53 AM 28.9 °F 23.9 °F 26.1 °F 89% 29.99 in 9.0 mi North 4.6 mph - 0.00 in Snow Light Snow
6:53 AM 30.0 °F 22.4 °F 25.0 °F 82% 30.02 in 10.0 mi NNW 8.1 mph - 0.00 in   Mostly Cloudy
7:07 AM 28.4 °F 22.2 °F 24.8 °F 86% 30.00 in 10.0 mi NNW 5.8 mph - N/A   Mostly Cloudy
7:21 AM 26.6 °F 20.0 °F 24.8 °F 93% 30.00 in 10.0 mi NNW 5.8 mph - N/A   Scattered Clouds
7:53 AM 28.0 °F 21.7 °F 23.0 °F 81% 30.04 in 10.0 mi North 5.8 mph - N/A   Partly Cloudy
8:53 AM 30.9 °F 23.5 °F 24.1 °F 76% 30.05 in 10.0 mi North 8.1 mph - N/A   Scattered Clouds
9:53 AM 32.0 °F 24.8 °F 25.0 °F 75% 30.08 in 10.0 mi NNE 8.1 mph - N/A   Scattered Clouds
10:53 AM 36.0 °F 29.6 °F 27.0 °F 70% 30.08 in 10.0 mi North 8.1 mph - N/A   Partly Cloudy
11:53 AM 39.0 °F 33.4 °F 28.0 °F 65% 30.06 in 10.0 mi NNE 8.1 mph - N/A   Scattered Clouds
12:53 PM 37.9 °F 32.7 °F 27.0 °F 65% 30.06 in 10.0 mi East 6.9 mph - N/A   Partly Cloudy
1:53 PM 37.9 °F 32.1 °F 26.1 °F 62% 30.06 in 10.0 mi NNE 8.1 mph - N/A   Partly Cloudy
2:53 PM 36.0 °F 30.3 °F 27.0 °F 70% 30.08 in 10.0 mi East 6.9 mph - N/A   Partly Cloudy
3:53 PM 34.0 °F 28.8 °F 27.0 °F 75% 30.10 in 10.0 mi East 5.8 mph - N/A   Clear
4:53 PM 30.9 °F 26.2 °F 25.0 °F 79% 30.11 in 10.0 mi NE 4.6 mph - N/A   Clear
5:53 PM 30.9 °F 25.2 °F 26.1 °F 82% 30.12 in 10.0 mi NE 5.8 mph - N/A   Clear
6:53 PM 30.9 °F 24.3 °F 26.1 °F 82% 30.10 in 10.0 mi ENE 6.9 mph - N/A   Clear
7:53 PM 30.9 °F 24.3 °F 26.1 °F 82% 30.12 in 8.0 mi East 6.9 mph - N/A   Scattered Clouds
8:08 PM 32.0 °F 25.6 °F 26.6 °F 80% 30.10 in 8.0 mi East 6.9 mph - N/A   Mostly Cloudy
8:53 PM 32.0 °F 24.8 °F 27.0 °F 82% 30.13 in 8.0 mi ESE 8.1 mph - N/A   Overcast
9:05 PM 32.0 °F 25.6 °F 26.6 °F 80% 30.10 in 8.0 mi ESE 6.9 mph - N/A   Overcast
9:53 PM 33.1 °F 26.9 °F 27.0 °F 78% 30.13 in 10.0 mi ESE 6.9 mph - N/A   Overcast
10:53 PM 32.0 °F 26.4 °F 27.0 °F 82% 30.13 in 10.0 mi East 5.8 mph - N/A   Overcast
11:53 PM 32.0 °F 25.6 °F 27.0 °F 82% 30.12 in 10.0 mi ENE 6.9 mph - N/A   Mostly Cloudy